Dades meteomassalio
Diari Summary for Juny 2, 2017 Units:  English    Metric   Both
« Previous Day
Next Day »
Diari Semanal Mensual Anual Personalitzat
  Maxima: Minima: Mijana:
Temperatura: TemperatureC °F 15.8 °F 22.2 °F
Rosada: DewpointC °F 13.3 °F 15.5 °F
Humitat: Humidity % 34 % 68 %
Velocitat del vent: WindSpeedKMH mph 0.0 mph 5.6 mph
Racha vent: WindSpeedGustKMH mph - -
Vent:- - SSE
Pressio: PressurehPa in 1013.4 in -
Pluja: 7.1 in    
Historical Graphs
 
 
Tabular Data for Juny 2, 2017
Time Temperature Dew Point Pressure Wind Wind Speed Wind Gust Humidity Rainfall Rate (Hourly) solar Conditions
TemperatureC °F DewpointC °F PressurehPa in Calm     Humidity % HourlyPrecipMM in SolarRadiationWatts/m^2 W/m2 Conditions
00:04 20.8 °F 14.7 °F 1017.2 in Calm     68 % 0.0 in 0.0 W/m2 CLR
00:09 20.7 °F 14.6 °F 1017.2 in Calm     68 % 0.0 in 0.0 W/m2 CLR
00:14 20.6 °F 14.5 °F 1017.2 in Calm     68 % 0.0 in 0.0 W/m2 CLR
00:19 20.5 °F 14.4 °F 1016.8 in Calm     68 % 0.0 in 0.0 W/m2 CLR
00:24 20.4 °F 14.6 °F 1016.8 in Calm     69 % 0.0 in 0.0 W/m2 CLR
00:29 20.4 °F 14.5 °F 1017.2 in Calm     69 % 0.0 in 0.0 W/m2 CLR
00:34 20.4 °F 14.5 °F 1017.2 in Calm     69 % 0.0 in 0.0 W/m2 CLR
00:39 20.3 °F 14.4 °F 1017.2 in Calm     69 % 0.0 in 0.0 W/m2 CLR
00:44 20.2 °F 14.6 °F 1017.2 in Calm     70 % 0.0 in 0.0 W/m2 CLR
00:49 20.1 °F 14.7 °F 1017.2 in Calm     71 % 0.0 in 0.0 W/m2 CLR
00:50 20.1 °F 14.7 °F 1017.2 in Calm     71 % 0.0 in 0.0 W/m2 CLR
00:55 20.0 °F 14.8 °F 1017.2 in Calm     72 % 0.0 in 0.0 W/m2 CLR
00:56 20.0 °F 14.8 °F 1017.2 in Calm     72 % 0.0 in 0.0 W/m2 CLR
01:01 19.9 °F 14.9 °F 1017.2 in ESE 5.6 mph 5.6 mph 73 % 0.0 in 0.0 W/m2 CLR
01:06 19.8 °F 14.8 °F 1017.2 in ESE 8.0 mph 8.0 mph 73 % 0.0 in 0.0 W/m2 CLR
01:11 19.7 °F 14.9 °F 1017.2 in Calm     74 % 0.0 in 0.0 W/m2 CLR
01:16 19.7 °F 14.9 °F 1017.2 in Calm     74 % 0.0 in 0.0 W/m2 CLR
01:21 19.6 °F 14.8 °F 1017.2 in Calm     74 % 0.0 in 0.0 W/m2 CLR
01:26 19.5 °F 14.7 °F 1017.2 in Calm     74 % 0.0 in 0.0 W/m2 CLR
01:31 19.5 °F 14.7 °F 1017.2 in Calm     74 % 0.0 in 0.0 W/m2 CLR
01:36 19.5 °F 14.7 °F 1017.2 in Calm     74 % 0.0 in 0.0 W/m2 CLR
01:41 19.4 °F 14.7 °F 1017.2 in Calm     74 % 0.0 in 0.0 W/m2 CLR
01:46 19.3 °F 14.6 °F 1017.2 in Calm     74 % 0.0 in 0.0 W/m2 CLR
01:51 19.3 °F 14.8 °F 1016.8 in ESE 7.4 mph 7.4 mph 75 % 0.0 in 0.0 W/m2 CLR
01:56 19.4 °F 14.8 °F 1016.8 in ESE 3.7 mph   75 % 0.0 in 0.0 W/m2 CLR
02:01 19.3 °F 14.8 °F 1016.8 in Calm     75 % 0.0 in 0.0 W/m2 CLR
02:06 19.2 °F 14.7 °F 1016.8 in Calm     75 % 0.0 in 0.0 W/m2 CLR
02:11 19.2 °F 14.8 °F 1016.8 in Calm     76 % 0.0 in 0.0 W/m2 CLR
02:16 19.2 °F 14.8 °F 1016.8 in Calm     76 % 0.0 in 0.0 W/m2 CLR
02:21 19.0 °F 14.3 °F 1016.8 in Calm     74 % 0.0 in 0.0 W/m2 CLR
02:26 18.8 °F 14.3 °F 1016.8 in Calm     75 % 0.0 in 0.0 W/m2 CLR
02:31 18.7 °F 14.4 °F 1016.8 in Calm     76 % 0.0 in 0.0 W/m2 CLR
02:36 18.6 °F 14.1 °F 1016.8 in Calm     75 % 0.0 in 0.0 W/m2 CLR
02:41 18.4 °F 14.1 °F 1016.8 in Calm     76 % 0.0 in 0.0 W/m2 CLR
02:46 18.3 °F 14.0 °F 1016.5 in Calm     76 % 0.0 in 0.0 W/m2 CLR
02:51 18.1 °F 13.9 °F 1016.5 in Calm     77 % 0.0 in 0.0 W/m2 CLR
02:56 17.9 °F 14.0 °F 1016.5 in Calm     78 % 0.0 in 0.0 W/m2 CLR
03:01 17.8 °F 13.9 °F 1016.5 in Calm     78 % 0.0 in 0.0 W/m2 CLR
03:06 17.7 °F 14.1 °F 1016.5 in Calm     79 % 0.0 in 0.0 W/m2 CLR
03:11 17.7 °F 14.0 °F 1016.5 in Calm     79 % 0.0 in 0.0 W/m2 CLR
03:16 17.6 °F 13.7 °F 1016.5 in Calm     78 % 0.0 in 0.0 W/m2 CLR
03:21 17.5 °F 14.0 °F 1016.5 in Calm     80 % 0.0 in 0.0 W/m2 CLR
03:26 17.4 °F 13.9 °F 1016.5 in Calm     80 % 0.0 in 0.0 W/m2 CLR
03:31 17.4 °F 13.9 °F 1016.5 in Calm     80 % 0.0 in 0.0 W/m2 CLR
03:36 17.3 °F 13.8 °F 1016.5 in Calm     80 % 0.0 in 0.0 W/m2 CLR
03:41 17.2 °F 13.7 °F 1016.5 in Calm     80 % 0.0 in 0.0 W/m2 CLR
03:46 17.1 °F 13.8 °F 1016.5 in Calm     81 % 0.0 in 0.0 W/m2 CLR
03:51 17.0 °F 13.7 °F 1016.5 in Calm     81 % 0.0 in 0.0 W/m2 CLR
03:56 16.9 °F 13.7 °F 1016.5 in Calm     81 % 0.0 in 0.0 W/m2 CLR
04:01 16.8 °F 13.7 °F 1016.5 in Calm     82 % 0.0 in 0.0 W/m2 CLR
04:06 16.8 °F 13.7 °F 1016.5 in Calm     82 % 0.0 in 0.0 W/m2 CLR
04:11 16.7 °F 13.6 °F 1016.5 in Calm     82 % 0.0 in 0.0 W/m2 CLR
04:16 16.6 °F 13.5 °F 1016.5 in Calm     82 % 0.0 in 0.0 W/m2 CLR
04:21 16.7 °F 13.8 °F 1016.5 in Calm     83 % 0.0 in 0.0 W/m2 CLR
04:26 16.6 °F 13.5 °F 1016.5 in Calm     82 % 0.0 in 0.0 W/m2 CLR
04:31 16.6 °F 13.7 °F 1016.5 in Calm     83 % 0.0 in 0.0 W/m2 CLR
04:36 16.6 °F 13.7 °F 1016.5 in Calm     83 % 0.0 in 0.0 W/m2 CLR
04:41 16.7 °F 13.8 °F 1016.5 in Calm     83 % 0.0 in 0.0 W/m2 CLR
04:46 16.6 °F 13.4 °F 1016.5 in Calm     82 % 0.0 in 0.0 W/m2 CLR
04:52 16.4 °F 13.3 °F 1016.5 in Calm     82 % 0.0 in 0.0 W/m2 CLR
04:56 16.3 °F 13.4 °F 1016.5 in Calm     83 % 0.0 in 0.0 W/m2 CLR
05:01 16.3 °F 13.6 °F 1016.5 in Calm     84 % 0.0 in 0.0 W/m2 CLR
05:07 16.3 °F 13.6 °F 1016.5 in Calm     84 % 0.0 in 0.0 W/m2 CLR
05:12 16.3 °F 13.6 °F 1016.5 in Calm     84 % 0.0 in 0.0 W/m2 CLR
05:17 16.2 °F 13.3 °F 1016.5 in Calm     83 % 0.0 in 0.0 W/m2 CLR
05:22 16.1 °F 13.3 °F 1016.5 in Calm     84 % 0.0 in 0.0 W/m2 CLR
05:27 16.1 °F 13.4 °F 1016.5 in Calm     84 % 0.0 in 0.0 W/m2 CLR
05:32 16.2 °F 13.5 °F 1016.5 in Calm     84 % 0.0 in 0.0 W/m2 CLR
05:37 16.2 °F 13.5 °F 1016.5 in Calm     84 % 0.0 in 0.0 W/m2 CLR
05:42 16.2 °F 13.7 °F 1016.5 in Calm     85 % 0.0 in 0.0 W/m2 CLR
05:47 16.3 °F 13.6 °F 1016.5 in Calm     84 % 0.0 in 0.0 W/m2 CLR
05:52 16.2 °F 13.4 °F 1016.5 in Calm     84 % 0.0 in 0.0 W/m2 CLR
05:57 16.1 °F 13.6 °F 1016.5 in Calm     85 % 0.0 in 0.0 W/m2 CLR
06:02 16.1 °F 13.6 °F 1016.5 in Calm     85 % 0.0 in 0.0 W/m2 CLR
06:07 16.1 °F 13.6 °F 1016.5 in Calm     85 % 0.0 in 0.0 W/m2 CLR
06:12 16.1 °F 13.8 °F 1016.5 in Calm     86 % 0.0 in 0.0 W/m2 CLR
06:17 16.1 °F 13.7 °F 1016.5 in Calm     86 % 0.0 in 0.0 W/m2 CLR
06:22 16.1 °F 13.7 °F 1016.5 in Calm     86 % 0.0 in 0.0 W/m2 OVC
06:27 16.1 °F 13.7 °F 1016.5 in Calm     86 % 0.0 in 0.0 W/m2 OVC
06:32 16.0 °F 13.7 °F 1016.5 in Calm     86 % 0.0 in 5.0 W/m2 OVC
06:37 15.9 °F 13.6 °F 1016.5 in Calm     86 % 0.0 in 9.0 W/m2 BKN
06:42 15.9 °F 13.6 °F 1016.5 in Calm     86 % 0.0 in 12.0 W/m2 BKN
06:47 15.9 °F 13.7 °F 1016.5 in Calm     87 % 0.0 in 19.0 W/m2 BKN
06:52 15.8 °F 13.7 °F 1016.5 in Calm     87 % 0.0 in 23.0 W/m2 BKN
06:57 15.8 °F 13.7 °F 1016.5 in Calm     87 % 0.0 in 26.0 W/m2 BKN
07:02 15.8 °F 13.7 °F 1016.8 in Calm     87 % 0.0 in 28.0 W/m2 BKN
07:07 15.8 °F 13.7 °F 1016.8 in Calm     87 % 0.0 in 35.0 W/m2 BKN
07:12 15.9 °F 13.8 °F 1016.5 in Calm     87 % 0.0 in 40.0 W/m2 BKN
07:17 16.1 °F 13.7 °F 1016.8 in Calm     86 % 0.0 in 49.0 W/m2 SCT
07:22 16.1 °F 13.7 °F 1016.8 in Calm     86 % 0.0 in 58.0 W/m2 SCT
07:27 16.2 °F 13.8 °F 1016.8 in Calm     86 % 0.0 in 62.0 W/m2 SCT
07:32 16.3 °F 13.9 °F 1016.8 in Calm     86 % 0.0 in 62.0 W/m2 SCT
07:37 16.4 °F 14.1 °F 1016.8 in Calm     86 % 0.0 in 65.0 W/m2 SCT
07:42 16.4 °F 14.1 °F 1016.8 in Calm     86 % 0.0 in 74.0 W/m2 FEW
07:47 16.6 °F 14.2 °F 1017.2 in Calm     86 % 0.0 in 93.0 W/m2 FEW
07:52 16.8 °F 14.4 °F 1017.2 in Calm     86 % 0.0 in 151.0 W/m2 CLR
07:57 17.0 °F 14.7 °F 1017.2 in Calm     86 % 0.0 in 139.0 W/m2 CLR
08:02 17.3 °F 14.7 °F 1017.2 in Calm     85 % 0.0 in 204.0 W/m2 CLR
08:07 17.7 °F 15.2 °F 1017.2 in Calm     85 % 0.0 in 244.0 W/m2 CLR
08:12 18.2 °F 15.2 °F 1017.2 in Calm     83 % 0.0 in 246.0 W/m2 CLR
08:17 18.4 °F 15.1 °F 1017.2 in Calm     81 % 0.0 in 158.0 W/m2 CLR
08:22 18.7 °F 15.4 °F 1017.2 in Calm     81 % 0.0 in 283.0 W/m2 CLR
08:27 19.2 °F 15.6 °F 1017.2 in Calm     80 % 0.0 in 302.0 W/m2 CLR
08:32 19.8 °F 15.8 °F 1017.2 in Calm     78 % 0.0 in 276.0 W/m2 CLR
08:37 20.2 °F 15.8 °F 1017.2 in Calm     76 % 0.0 in 176.0 W/m2 CLR
08:42 20.3 °F 15.6 °F 1017.2 in Calm     74 % 0.0 in 142.0 W/m2 CLR
08:47 20.4 °F 15.8 °F 1017.5 in Calm     75 % 0.0 in 144.0 W/m2 CLR
08:52 20.5 °F 15.7 °F 1017.5 in Calm     74 % 0.0 in 281.0 W/m2 CLR
08:57 20.6 °F 15.6 °F 1017.5 in Calm     73 % 0.0 in 392.0 W/m2 CLR
09:02 20.8 °F 15.8 °F 1017.5 in Calm     73 % 0.0 in 462.0 W/m2 CLR
09:07 21.2 °F 15.9 °F 1017.5 in Calm     72 % 0.0 in 506.0 W/m2 CLR
09:12 21.3 °F 15.8 °F 1017.5 in Calm     71 % 0.0 in 397.0 W/m2 CLR
09:17 21.6 °F 15.9 °F 1017.5 in Calm     70 % 0.0 in 443.0 W/m2 CLR
09:22 21.7 °F 15.8 °F 1017.5 in Calm     69 % 0.0 in 146.0 W/m2 CLR
09:27 21.7 °F 15.8 °F 1017.5 in Calm     69 % 0.0 in 88.0 W/m2 CLR
09:37 21.6 °F 16.1 °F 1017.2 in Calm     71 % 0.0 in 56.0 W/m2 FEW
09:42 21.4 °F 16.4 °F 1017.2 in Calm     73 % 0.5 in 60.0 W/m2 RA
09:47 21.2 °F 16.8 °F 1017.2 in Calm     76 % 0.5 in 70.0 W/m2 RA
09:52 21.0 °F 16.6 °F 1017.2 in Calm     76 % 0.8 in 88.0 W/m2 RA
09:57 20.9 °F 17.2 °F 1017.2 in Calm     79 % 0.8 in 104.0 W/m2 CLR
10:02 20.8 °F 17.4 °F 1017.5 in NW 18.5 mph 18.5 mph 81 % 0.8 in 128.0 W/m2 CLR
10:07 20.5 °F 16.9 °F 1017.5 in North 9.3 mph 9.3 mph 80 % 0.8 in 153.0 W/m2 CLR
10:12 20.6 °F 16.8 °F 1017.2 in Calm     79 % 0.8 in 176.0 W/m2 CLR
10:17 20.7 °F 16.9 °F 1017.2 in Calm     79 % 0.8 in 193.0 W/m2 CLR
10:22 21.0 °F 17.4 °F 1017.2 in NW 8.0 mph 8.0 mph 80 % 0.8 in 216.0 W/m2 CLR
10:27 21.2 °F 17.2 °F 1017.2 in Calm     78 % 0.8 in 241.0 W/m2 CLR
10:32 21.3 °F 17.6 °F 1017.2 in Calm     79 % 0.8 in 271.0 W/m2 CLR
10:37 21.6 °F 17.2 °F 1017.2 in Calm     76 % 0.8 in 288.0 W/m2 CLR
10:42 21.8 °F 17.4 °F 1017.2 in Calm     76 % 0.5 in 301.0 W/m2 CLR
10:47 21.9 °F 16.6 °F 1017.2 in Calm     72 % 0.3 in 322.0 W/m2 CLR
10:52 21.9 °F 16.8 °F 1017.2 in Calm     73 % 0.0 in 339.0 W/m2 CLR
10:57 22.1 °F 17.2 °F 1017.2 in Calm     74 % 0.0 in 320.0 W/m2 CLR
11:02 22.3 °F 17.0 °F 1017.2 in Calm     72 % 0.0 in 334.0 W/m2 CLR
11:07 22.4 °F 16.5 °F 1017.2 in Calm     69 % 0.0 in 353.0 W/m2 CLR
11:12 22.6 °F 16.6 °F 1017.2 in Calm     69 % 0.0 in 388.0 W/m2 CLR
11:17 22.7 °F 16.7 °F 1016.8 in Calm     69 % 0.0 in 603.0 W/m2 CLR
11:22 22.9 °F 16.9 °F 1017.2 in Calm     69 % 0.0 in 482.0 W/m2 CLR
11:27 23.1 °F 16.4 °F 1016.8 in Calm     66 % 0.0 in 448.0 W/m2 CLR
11:32 23.3 °F 16.6 °F 1017.2 in Calm     66 % 0.0 in 417.0 W/m2 CLR
11:37 23.5 °F 16.3 °F 1016.8 in Calm     64 % 0.0 in 476.0 W/m2 CLR
11:42 23.9 °F 16.9 °F 1016.8 in Calm     65 % 0.0 in 466.0 W/m2 CLR
11:47 24.3 °F 17.3 °F 1016.8 in Calm     65 % 0.0 in 420.0 W/m2 CLR
11:52 24.7 °F 17.2 °F 1016.8 in Calm     63 % 0.0 in 432.0 W/m2 CLR
11:57 25.1 °F 17.1 °F 1016.8 in Calm     61 % 0.0 in 916.0 W/m2 CLR
12:02 25.4 °F 16.6 °F 1016.8 in ENE 3.7 mph   58 % 0.0 in 937.0 W/m2 CLR
12:07 25.7 °F 16.3 °F 1016.5 in SSE 3.7 mph 3.7 mph 56 % 0.0 in 805.0 W/m2 CLR
12:12 25.8 °F 16.7 °F 1016.5 in SE 7.4 mph 7.4 mph 57 % 0.0 in 805.0 W/m2 CLR
12:17 25.9 °F 17.1 °F 1016.5 in ESE 3.7 mph   58 % 0.0 in 432.0 W/m2 CLR
12:18 25.9 °F 17.1 °F 1016.5 in ESE 3.7 mph   58 % 0.0 in 432.0 W/m2 CLR
12:23 26.4 °F 16.9 °F 1016.5 in East 5.6 mph 5.6 mph 56 % 0.0 in 932.0 W/m2 CLR
12:28 26.7 °F 16.9 °F 1016.5 in Calm     55 % 0.0 in 976.0 W/m2 CLR
12:33 26.8 °F 16.4 °F 1016.5 in SE 5.6 mph   53 % 0.0 in 279.0 W/m2 CLR
12:38 26.8 °F 16.7 °F 1016.5 in Calm     54 % 0.0 in 362.0 W/m2 CLR
12:43 26.8 °F 16.4 °F 1016.1 in Calm     53 % 0.0 in 327.0 W/m2 CLR
12:48 26.7 °F 16.3 °F 1016.1 in Calm     53 % 0.0 in 415.0 W/m2 CLR
12:53 27.1 °F 16.9 °F 1016.1 in Calm     54 % 0.0 in 628.0 W/m2 CLR
12:58 27.7 °F 16.9 °F 1016.1 in Calm   0.2 mph 52 % 0.0 in 373.0 W/m2 CLR
13:03 27.9 °F 16.5 °F 1016.1 in Calm     50 % 0.0 in 327.0 W/m2 CLR
13:08 28.1 °F 16.7 °F 1016.1 in Calm     50 % 0.0 in 649.0 W/m2 CLR
13:13 28.2 °F 16.8 °F 1016.1 in Calm     50 % 0.0 in 1025.0 W/m2 CLR
13:18 28.4 °F 16.7 °F 1015.8 in Calm     49 % 0.0 in 976.0 W/m2 CLR
13:23 28.8 °F 15.4 °F 1015.8 in Calm     44 % 0.0 in 784.0 W/m2 CLR
13:28 29.1 °F 15.9 °F 1015.8 in Calm     45 % 0.0 in 810.0 W/m2 CLR
13:33 29.3 °F 16.4 °F 1015.8 in ESE 5.6 mph 5.6 mph 46 % 0.0 in 715.0 W/m2 CLR
13:38 29.2 °F 16.1 °F 1015.8 in North 1.9 mph   45 % 0.0 in 654.0 W/m2 CLR
13:43 29.2 °F 16.1 °F 1015.5 in NE 3.2 mph   45 % 0.0 in 923.0 W/m2 CLR
13:48 29.6 °F 16.4 °F 1015.5 in ENE 7.4 mph 7.4 mph 45 % 0.0 in 926.0 W/m2 CLR
13:53 30.0 °F 16.8 °F 1015.5 in ENE 3.7 mph 3.7 mph 45 % 0.0 in 907.0 W/m2 CLR
13:58 30.3 °F 16.7 °F 1015.5 in ENE 11.1 mph 11.1 mph 44 % 0.0 in 911.0 W/m2 CLR
14:03 30.3 °F 16.7 °F 1015.1 in ENE 5.6 mph 5.6 mph 44 % 0.0 in 905.0 W/m2 CLR
14:08 30.5 °F 16.5 °F 1015.1 in NE 3.7 mph 3.7 mph 43 % 0.0 in 905.0 W/m2 CLR
14:13 30.5 °F 15.8 °F 1015.1 in East 5.6 mph 5.6 mph 41 % 0.0 in 905.0 W/m2 CLR
14:18 30.5 °F 15.8 °F 1015.1 in East 14.5 mph 14.5 mph 41 % 0.0 in 902.0 W/m2 CLR
14:23 30.6 °F 15.0 °F 1014.8 in ENE 9.3 mph 9.3 mph 39 % 0.0 in 905.0 W/m2 CLR
14:28 30.7 °F 15.5 °F 1014.8 in Calm     40 % 0.0 in 904.0 W/m2 CLR
14:33 30.8 °F 16.1 °F 1014.8 in ENE 1.9 mph 1.9 mph 41 % 0.0 in 893.0 W/m2 CLR
14:38 31.3 °F 15.7 °F 1014.4 in NE 1.9 mph   39 % 0.0 in 886.0 W/m2 CLR
14:43 31.6 °F 15.2 °F 1014.4 in ESE 13.0 mph 13.0 mph 37 % 0.0 in 889.0 W/m2 CLR
14:48 31.3 °F 14.8 °F 1014.4 in ESE 7.4 mph 7.4 mph 37 % 0.0 in 891.0 W/m2 CLR
14:53 31.2 °F 14.8 °F 1014.4 in East 14.5 mph 14.5 mph 37 % 0.0 in 886.0 W/m2 CLR
14:58 31.3 °F 15.3 °F 1014.4 in North 8.0 mph 8.0 mph 38 % 0.0 in 879.0 W/m2 CLR
15:03 31.5 °F 14.2 °F 1014.4 in ENE 7.4 mph 7.4 mph 35 % 0.0 in 870.0 W/m2 CLR
15:08 31.5 °F 14.2 °F 1014.1 in NE 5.6 mph 5.6 mph 35 % 0.0 in 877.0 W/m2 CLR
15:13 31.4 °F 13.7 °F 1014.1 in SE 9.3 mph 9.3 mph 34 % 0.0 in 886.0 W/m2 CLR
15:18 31.6 °F 13.8 °F 1014.1 in SSE 3.7 mph   34 % 0.0 in 881.0 W/m2 CLR
15:23 31.9 °F 14.1 °F 1013.8 in ENE 7.4 mph 7.4 mph 34 % 0.0 in 882.0 W/m2 CLR
15:28 32.2 °F 14.4 °F 1013.8 in ENE 20.4 mph 20.4 mph 34 % 0.0 in 872.0 W/m2 CLR
15:33 32.3 °F 14.4 °F 1013.8 in ENE 9.3 mph 9.3 mph 34 % 0.0 in 868.0 W/m2 CLR
15:38 32.5 °F 14.6 °F 1013.8 in NE 16.1 mph 16.1 mph 34 % 0.0 in 849.0 W/m2 CLR
15:43 32.3 °F 14.4 °F 1013.8 in Calm     34 % 0.0 in 921.0 W/m2 CLR
15:48 32.5 °F 14.6 °F 1013.8 in ENE 8.0 mph 8.0 mph 34 % 0.0 in 909.0 W/m2 CLR
15:53 32.4 °F 14.5 °F 1013.8 in SSE 8.0 mph 8.0 mph 34 % 0.0 in 860.0 W/m2 CLR
15:58 32.1 °F 14.3 °F 1013.8 in ENE 5.6 mph 5.6 mph 34 % 0.0 in 861.0 W/m2 CLR
16:03 32.1 °F 14.7 °F 1013.8 in SSE 5.6 mph 5.6 mph 35 % 0.0 in 867.0 W/m2 CLR
16:08 32.0 °F 14.6 °F 1013.8 in East 6.4 mph 6.4 mph 35 % 0.0 in 867.0 W/m2 CLR
16:13 31.9 °F 15.0 °F 1013.8 in ESE 9.3 mph 9.3 mph 36 % 0.0 in 526.0 W/m2 CLR
16:18 31.3 °F 14.9 °F 1013.8 in ESE 18.5 mph 18.5 mph 37 % 0.0 in 195.0 W/m2 CLR
16:23 30.4 °F 15.3 °F 1013.8 in SSW 18.5 mph 18.5 mph 40 % 0.0 in 167.0 W/m2 CLR
16:28 29.9 °F 16.3 °F 1014.1 in SSE 35.2 mph 35.2 mph 44 % 0.0 in 156.0 W/m2 CLR
16:33 29.0 °F 16.2 °F 1014.1 in SE 25.9 mph 25.9 mph 46 % 0.0 in 139.0 W/m2 CLR
16:38 28.2 °F 14.8 °F 1014.4 in SE 37.0 mph 37.0 mph 44 % 0.0 in 135.0 W/m2 CLR
16:43 27.0 °F 14.7 °F 1014.4 in SE 29.6 mph 29.6 mph 47 % 0.0 in 102.0 W/m2 CLR
16:48 26.6 °F 14.7 °F 1014.4 in SSE 18.5 mph 18.5 mph 48 % 0.0 in 76.0 W/m2 CLR
16:53 26.9 °F 14.6 °F 1014.1 in South 14.5 mph 14.5 mph 47 % 0.0 in 63.0 W/m2 FEW
16:58 27.2 °F 16.2 °F 1014.4 in SE 8.0 mph 8.0 mph 51 % 0.3 in 74.0 W/m2 RA
17:03 26.2 °F 16.2 °F 1014.1 in ENE 9.7 mph 9.7 mph 54 % 1.0 in 95.0 W/m2 RA
17:08 24.9 °F 16.7 °F 1014.1 in ENE 8.0 mph 8.0 mph 60 % 1.5 in 74.0 W/m2 RA
17:13 24.6 °F 17.1 °F 1014.4 in ENE 5.6 mph 5.6 mph 63 % 1.5 in 53.0 W/m2 FEW
17:18 24.4 °F 16.9 °F 1014.4 in ENE 9.3 mph 9.3 mph 63 % 1.5 in 44.0 W/m2 SCT
17:23 24.4 °F 15.8 °F 1014.4 in ENE 13.0 mph 13.0 mph 59 % 1.5 in 54.0 W/m2 SCT
17:28 24.4 °F 16.4 °F 1014.4 in ENE 11.1 mph 11.1 mph 61 % 1.5 in 63.0 W/m2 SCT
17:33 24.2 °F 16.2 °F 1014.1 in Calm     61 % 1.5 in 70.0 W/m2 SCT
17:38 24.1 °F 16.6 °F 1014.4 in SSE 20.9 mph 20.9 mph 63 % 1.5 in 88.0 W/m2 FEW
17:44 24.6 °F 17.1 °F 1014.1 in ENE 20.4 mph 20.4 mph 63 % 1.5 in 116.0 W/m2 CLR
17:49 24.9 °F 17.3 °F 1014.4 in SSE 16.7 mph 16.7 mph 63 % 1.5 in 206.0 W/m2 CLR
17:54 25.1 °F 17.8 °F 1014.4 in ENE 14.8 mph 14.8 mph 64 % 1.5 in 243.0 W/m2 CLR
17:59 25.3 °F 17.8 °F 1014.4 in SSW 18.5 mph 18.5 mph 63 % 1.3 in 508.0 W/m2 CLR
18:04 25.3 °F 17.3 °F 1014.4 in ENE 25.9 mph 25.9 mph 61 % 0.5 in 385.0 W/m2 CLR
18:09 25.4 °F 16.5 °F 1014.4 in South 22.2 mph 22.2 mph 58 % 0.0 in 445.0 W/m2 CLR
18:14 25.3 °F 16.4 °F 1014.1 in South 14.8 mph 14.8 mph 58 % 0.0 in 359.0 W/m2 CLR
18:19 25.1 °F 16.6 °F 1014.1 in SSW 9.3 mph 9.3 mph 59 % 0.0 in 359.0 W/m2 CLR
18:24 25.2 °F 15.8 °F 1014.1 in South 18.5 mph 18.5 mph 56 % 0.0 in 359.0 W/m2 CLR
18:29 25.4 °F 15.4 °F 1013.8 in South 14.8 mph 14.8 mph 54 % 0.0 in 155.0 W/m2 CLR
18:34 25.8 °F 14.9 °F 1013.8 in SSW 17.7 mph 17.7 mph 51 % 0.0 in 188.0 W/m2 CLR
18:39 26.4 °F 14.2 °F 1013.8 in SW 14.8 mph 14.8 mph 47 % 0.0 in 142.0 W/m2 CLR
18:44 26.8 °F 13.5 °F 1013.8 in South 29.6 mph 29.6 mph 44 % 0.0 in 130.0 W/m2 CLR
18:49 27.0 °F 13.3 °F 1013.8 in SSW 29.6 mph 29.6 mph 43 % 0.0 in 132.0 W/m2 CLR
18:54 26.8 °F 13.5 °F 1013.8 in South 38.9 mph 38.9 mph 44 % 0.0 in 125.0 W/m2 CLR
18:59 26.4 °F 13.8 °F 1013.8 in SSW 29.6 mph 29.6 mph 46 % 0.0 in 127.0 W/m2 CLR
19:04 26.1 °F 14.5 °F 1013.4 in SSW 19.3 mph 19.3 mph 49 % 0.0 in 107.0 W/m2 CLR
19:09 25.9 °F 14.7 °F 1013.4 in South 27.8 mph 27.8 mph 50 % 0.0 in 111.0 W/m2 CLR
19:14 25.8 °F 14.9 °F 1013.4 in SSW 27.8 mph 27.8 mph 51 % 0.0 in 132.0 W/m2 CLR
19:19 25.9 °F 14.7 °F 1013.4 in South 20.9 mph 20.9 mph 50 % 0.0 in 185.0 W/m2 CLR
19:24 26.2 °F 14.6 °F 1013.4 in SSW 33.3 mph 33.3 mph 49 % 0.0 in 146.0 W/m2 CLR
19:29 26.3 °F 15.1 °F 1013.4 in SSW 35.4 mph 35.4 mph 50 % 0.0 in 132.0 W/m2 CLR
19:34 26.3 °F 16.2 °F 1013.4 in SSW 20.4 mph 20.4 mph 54 % 0.0 in 113.0 W/m2 CLR
19:39 26.3 °F 16.0 °F 1013.8 in SSW 18.5 mph 18.5 mph 53 % 0.0 in 70.0 W/m2 CLR
19:44 26.4 °F 16.3 °F 1013.8 in SSW 13.0 mph 13.0 mph 54 % 0.0 in 60.0 W/m2 FEW
19:49 26.3 °F 16.0 °F 1014.1 in WSW 5.6 mph 5.6 mph 53 % 0.0 in 40.0 W/m2 SCT
19:54 26.5 °F 15.2 °F 1015.1 in WNW 14.8 mph 14.8 mph 50 % 0.0 in 21.0 W/m2 BKN
19:59 26.5 °F 15.6 °F 1015.5 in NNW 33.3 mph 33.3 mph 51 % 0.0 in 23.0 W/m2 BKN
20:04 25.3 °F 16.4 °F 1015.8 in North 27.8 mph 27.8 mph 58 % 0.3 in 33.0 W/m2 RA
20:09 24.4 °F 16.4 °F 1015.8 in NNW 29.6 mph 29.6 mph 61 % 0.3 in 32.0 W/m2 BKN
20:14 23.9 °F 16.4 °F 1015.8 in NNW 31.5 mph 31.5 mph 63 % 0.3 in 30.0 W/m2 BKN
20:19 23.6 °F 16.4 °F 1016.1 in North 20.4 mph 20.4 mph 64 % 0.3 in 25.0 W/m2 BKN
20:24 23.5 °F 16.3 °F 1016.1 in North 22.2 mph 22.2 mph 64 % 0.3 in 19.0 W/m2 BKN
20:29 23.3 °F 16.4 °F 1016.1 in North 20.9 mph 20.9 mph 65 % 0.3 in 16.0 W/m2 BKN
20:34 23.2 °F 16.3 °F 1016.1 in North 22.2 mph 22.2 mph 65 % 0.3 in 9.0 W/m2 BKN
20:39 23.1 °F 16.4 °F 1016.1 in NNW 18.5 mph 18.5 mph 66 % 0.3 in 5.0 W/m2 OVC
20:44 23.1 °F 16.6 °F 1016.1 in NW 16.7 mph 16.7 mph 67 % 0.3 in 0.0 W/m2 OVC
20:49 22.8 °F 16.8 °F 1016.1 in NW 11.3 mph 11.3 mph 69 % 0.3 in 0.0 W/m2 OVC
20:54 22.6 °F 17.1 °F 1016.5 in Calm     71 % 0.3 in 0.0 W/m2 OVC
20:59 22.3 °F 17.0 °F 1016.5 in North 4.8 mph 4.8 mph 72 % 0.5 in 0.0 W/m2 RA
21:04 22.1 °F 17.2 °F 1016.5 in NW 7.4 mph 7.4 mph 74 % 0.5 in 0.0 W/m2 RA
21:09 21.6 °F 17.2 °F 1016.5 in NW 13.0 mph 13.0 mph 76 % 0.8 in 0.0 W/m2 RA
21:14 21.3 °F 17.5 °F 1016.5 in Calm     79 % 1.0 in 0.0 W/m2 RA
21:19 20.9 °F 17.6 °F 1016.5 in Calm     81 % 1.3 in 0.0 W/m2 RA
21:24 20.7 °F 17.6 °F 1016.5 in Calm     82 % 1.3 in 0.0 W/m2
21:29 20.4 °F 17.7 °F 1016.8 in SW 8.0 mph 8.0 mph 84 % 1.5 in 0.0 W/m2 RA
21:34 20.3 °F 17.8 °F 1016.8 in WSW 4.8 mph 4.8 mph 86 % 1.5 in 0.0 W/m2 RA
21:39 20.1 °F 17.9 °F 1016.8 in Calm     87 % 1.5 in 0.0 W/m2 CLR
21:44 20.1 °F 17.8 °F 1016.8 in Calm     87 % 1.5 in 0.0 W/m2 CLR
21:49 20.0 °F 17.8 °F 1016.8 in Calm     87 % 1.5 in 0.0 W/m2 CLR
21:54 20.0 °F 17.9 °F 1016.8 in WSW 13.0 mph 13.0 mph 88 % 1.5 in 0.0 W/m2 CLR
21:59 19.9 °F 17.8 °F 1016.5 in SSW 7.4 mph 7.4 mph 88 % 1.5 in 0.0 W/m2 RA
22:04 19.9 °F 17.8 °F 1016.5 in SSW 6.4 mph 6.4 mph 88 % 1.5 in 0.0 W/m2 RA
22:09 19.8 °F 17.8 °F 1016.1 in Calm     88 % 1.3 in 0.0 W/m2
22:14 19.8 °F 17.7 °F 1016.1 in South 3.7 mph   88 % 1.3 in 0.0 W/m2 RA
22:19 19.8 °F 17.7 °F 1016.1 in SSE 9.3 mph 9.3 mph 88 % 1.3 in 0.0 W/m2 RA
22:24 19.8 °F 17.7 °F 1016.1 in SE 9.3 mph 9.3 mph 88 % 1.3 in 0.0 W/m2
22:29 19.7 °F 17.8 °F 1016.1 in SSW 6.4 mph 6.4 mph 89 % 1.5 in 0.0 W/m2 RA
22:34 19.7 °F 17.8 °F 1015.8 in South 9.3 mph 9.3 mph 89 % 1.5 in 0.0 W/m2 RA
22:39 19.6 °F 17.6 °F 1015.8 in SSW 7.4 mph   88 % 1.5 in 0.0 W/m2 CLR
22:41 19.6 °F 17.6 °F 1015.8 in South 1.9 mph 1.9 mph 88 % 1.5 in 0.0 W/m2 CLR
22:46 19.7 °F 17.6 °F 1016.1 in SSW 9.7 mph 9.7 mph 88 % 1.5 in 0.0 W/m2 CLR
22:51 19.8 °F 17.6 °F 1016.1 in West 9.3 mph 9.3 mph 87 % 1.5 in 0.0 W/m2 CLR
22:56 19.8 °F 17.6 °F 1016.5 in Calm     87 % 1.5 in 0.0 W/m2 RA
23:01 19.8 °F 17.4 °F 1016.5 in SW 5.6 mph 5.6 mph 86 % 1.5 in 0.0 W/m2
23:06 20.0 °F 17.4 °F 1016.8 in SW 7.4 mph 7.4 mph 85 % 1.3 in 0.0 W/m2 CLR
23:11 20.0 °F 17.4 °F 1016.8 in Calm     85 % 1.5 in 0.0 W/m2 RA
23:16 19.9 °F 17.3 °F 1016.8 in West 7.4 mph 7.4 mph 85 % 1.3 in 0.0 W/m2
23:21 19.9 °F 17.3 °F 1017.2 in Calm     85 % 1.0 in 0.0 W/m2 CLR
23:26 19.7 °F 17.3 °F 1017.5 in NE 4.8 mph 4.8 mph 86 % 0.5 in 0.0 W/m2 CLR
23:31 19.6 °F 17.3 °F 1017.5 in North 3.7 mph   87 % 0.5 in 0.0 W/m2 RA
23:36 19.4 °F 17.4 °F 1017.5 in Calm     88 % 0.5 in 0.0 W/m2 CLR
23:41 19.4 °F 17.3 °F 1017.2 in East 3.2 mph 3.2 mph 88 % 0.8 in 0.0 W/m2 RA
23:46 19.3 °F 17.5 °F 1016.8 in ENE 7.4 mph 7.4 mph 89 % 1.3 in 0.0 W/m2 RA
23:51 19.2 °F 17.4 °F 1016.5 in Calm     89 % 1.5 in 0.0 W/m2 RA
23:56 19.2 °F 17.5 °F 1016.1 in ESE 9.3 mph 9.3 mph 90 % 1.5 in 0.0 W/m2 CLR
Lo Temps de Massalio
Compliments of Weather Underground - 1.25 mb